Weather History for Sivas, Turkey

Change the Weather History Date:

Saturday, September 29, 2012

  Actual Average Record
Temperature  
Mean Temperature 66 °F -  
Max Temperature 86 °F 64 °F - ()
Min Temperature 45 °F 39 °F - ()
Growing Degree Days 16 (Base 50)    
Moisture  
Dew Point 27 °F    
Average Humidity 27    
Maximum Humidity 48    
Minimum Humidity 4    
Precipitation  
Precipitation 0.00 in 0.04 in - ()
Sea Level Pressure  
Sea Level Pressure 30.28 in    
Wind  
Wind Speed 5 mph ()    
Max Wind Speed 12 mph    
Max Gust Speed -    
Visibility 9.0 miles    
Events      
T = Trace of Precipitation, MM = Missing Value Source: Averaged Metar Reports

Daily Weather History Graph

Daily Weather History Graph

Search for Another Location

Airport:

Trip Planner

Search our weather history database for the weather conditions in past years. The results will help you decide how hot, cold, wet, or windy it might be!

Date:

Astronomy

Sep. 29, 2012 Rise Set
Actual Time 6:26 AM EEST 6:17 PM EEST
Civil Twilight 5:59 AM EEST 6:44 PM EEST
Nautical Twilight 5:28 AM EEST 7:15 PM EEST
Astronomical Twilight 4:56 AM EEST 7:47 PM EEST
Moon 5:39 PM EEST (9/29) 5:36 AM EEST (9/29)
Length of Visible Light 12h 44m
Length of Day
11h 50m
Waxing Gibbous, 99% of the Moon is Illuminated
Sep 29
Waxing Gibbous
Sep 30
Full
Oct 8
Last Quarter
Oct 15
New
Oct 22
First Quarter

Hourly Weather History & Observations

Time (EEST) Temp. Dew Point Humidity Pressure Visibility Wind Dir Wind Speed Gust Speed Precip Events Conditions
2:50 AM 50.0 °F 24.8 °F 37% 30.27 in - ESE 6.9 mph - N/A   Clear
3:00 AM 49 °F 30 °F 35%  in 9 mi Calm Calm - -  
3:50 AM 50.0 °F 24.8 °F 37% 30.27 in - ESE 5.8 mph - N/A   Clear
4:50 AM 50.0 °F 24.8 °F 37% 30.27 in - East 8.1 mph - N/A   Clear
5:50 AM 48.2 °F 24.8 °F 40% 30.27 in - ESE 9.2 mph - N/A   Clear
6:50 AM 50.0 °F 24.8 °F 37% 30.27 in - East 9.2 mph - N/A   Clear
7:50 AM 60.8 °F 24.8 °F 25% 30.30 in - East 8.1 mph - N/A   Clear
8:50 AM 66.2 °F 23.0 °F 19% 30.30 in - East 11.5 mph - N/A   Clear
9:00 AM 54 °F 30 °F 27%  in 9 mi Calm Calm - -  
9:50 AM 69.8 °F 21.2 °F 16% 30.33 in - East 9.2 mph - N/A   Clear
10:50 AM 73.4 °F 23.0 °F 15% 30.33 in - SE 6.9 mph - N/A   Clear
11:50 AM 75.2 °F 24.8 °F 15% 30.30 in - South 9.2 mph - N/A   Clear
12:50 PM 77.0 °F 19.4 °F 12% 30.30 in - South 8.1 mph - N/A   Clear
1:50 PM 78.8 °F 19.4 °F 11% 30.27 in - Variable 3.5 mph - N/A   Clear
2:50 PM 77.0 °F 19.4 °F 12% 30.27 in - SSW 8.1 mph - N/A   Clear
3:00 PM 85 °F 21 °F 4%  in 9 mi North 2.3 mph - -  
3:50 PM 78.8 °F 21.2 °F 12% 30.24 in - Variable 4.6 mph - N/A   Clear
4:50 PM 77.0 °F 21.2 °F 12% 30.24 in - WSW 5.8 mph - N/A   Clear
5:50 PM 75.2 °F 21.2 °F 13% 30.24 in - WNW 4.6 mph - N/A   Clear
6:50 PM 66.2 °F 33.8 °F 30% 30.24 in - North 9.2 mph - N/A   Clear
7:50 PM 60.8 °F 41.0 °F 48% 30.27 in - North 10.4 mph - N/A   Clear
8:50 PM 60.8 °F 37.4 °F 42% 30.27 in - NE 4.6 mph - N/A   Clear
9:00 PM 65 °F 42 °F 31%  in 9 mi Calm Calm - -  
9:50 PM 55.4 °F 33.8 °F 44% 30.27 in - SE 5.8 mph - N/A   Clear
10:50 PM 57.2 °F 35.6 °F 44% 30.27 in - Variable 2.3 mph - N/A   Clear
11:50 PM 57.2 °F 35.6 °F 44% 30.27 in - Calm Calm - N/A   Clear